TimeCST,TemperatureF,Dew PointF,Humidity,Sea Level PressureIn,VisibilityMPH,Wind Direction,Wind SpeedMPH,Gust SpeedMPH,PrecipitationIn,Events,Conditions,WindDirDegrees,DateUTC
12:53 AM,50.0,43.0,77,30.07,10.0,ESE,4.6,-,N/A,,Clear,110,2012-11-09 06:53:00
1:53 AM,46.9,42.1,83,30.07,10.0,East,3.5,-,N/A,,Clear,100,2012-11-09 07:53:00
2:53 AM,46.0,42.1,86,30.08,10.0,East,3.5,-,N/A,,Clear,90,2012-11-09 08:53:00
3:53 AM,45.0,42.1,90,30.08,10.0,Calm,Calm,-,N/A,,Clear,0,2012-11-09 09:53:00
4:53 AM,46.0,43.0,89,30.09,10.0,ENE,3.5,-,N/A,,Clear,70,2012-11-09 10:53:00
5:53 AM,48.9,44.1,83,30.10,9.0,Calm,Calm,-,N/A,,Scattered Clouds,0,2012-11-09 11:53:00
6:53 AM,50.0,46.0,86,30.10,9.0,Calm,Calm,-,N/A,,Overcast,0,2012-11-09 12:53:00
7:46 AM,54.0,48.9,83,30.13,10.0,East,3.5,-,N/A,,Overcast,80,2012-11-09 13:46:00
7:53 AM,55.0,48.9,80,30.12,10.0,East,3.5,-,N/A,,Overcast,80,2012-11-09 13:53:00
8:53 AM,57.0,50.0,77,30.12,10.0,East,4.6,-,N/A,,Mostly Cloudy,90,2012-11-09 14:53:00
9:53 AM,64.9,54.0,68,30.11,10.0,Variable,4.6,-,N/A,,Partly Cloudy,0,2012-11-09 15:53:00
10:53 AM,69.1,55.9,63,30.09,10.0,SSW,9.2,-,N/A,,Overcast,210,2012-11-09 16:53:00
11:53 AM,73.0,57.9,59,30.05,10.0,SSW,12.7,18.4,N/A,,Overcast,200,2012-11-09 17:53:00
12:53 PM,78.1,57.9,50,30.01,10.0,SSW,9.2,21.9,N/A,,Mostly Cloudy,200,2012-11-09 18:53:00
1:53 PM,78.1,57.0,48,29.99,10.0,SSW,10.4,21.9,N/A,,Clear,210,2012-11-09 19:53:00
2:53 PM,78.1,57.0,48,29.97,10.0,South,13.8,20.7,N/A,,Clear,170,2012-11-09 20:53:00
3:53 PM,77.0,55.9,48,29.96,10.0,South,12.7,20.7,N/A,,Clear,190,2012-11-09 21:53:00
4:53 PM,75.0,55.9,51,29.96,10.0,South,9.2,-,N/A,,Clear,170,2012-11-09 22:53:00
5:53 PM,72.0,54.0,53,29.98,10.0,SSE,5.8,-,N/A,,Clear,160,2012-11-09 23:53:00
6:53 PM,68.0,53.1,59,30.00,10.0,SE,4.6,-,N/A,,Clear,130,2012-11-10 00:53:00
7:53 PM,68.0,52.0,56,30.01,10.0,SE,4.6,-,N/A,,Clear,140,2012-11-10 01:53:00
8:53 PM,64.9,51.1,61,30.02,10.0,ESE,4.6,-,N/A,,Clear,110,2012-11-10 02:53:00
9:53 PM,61.0,51.1,70,30.02,10.0,ESE,4.6,-,N/A,,Clear,110,2012-11-10 03:53:00
10:53 PM,64.0,51.1,63,30.03,10.0,South,6.9,-,N/A,,Clear,170,2012-11-10 04:53:00
11:53 PM,63.0,52.0,67,30.03,10.0,South,5.8,-,N/A,,Clear,170,2012-11-10 05:53:00